Terminal Aerodrome Forecast
Issued by NWS Denver/Boulder, CO

Home | Current Version | Previous Version | Text Only | Print | Product List | Glossary On
Versions: 1 2 3 4 5 6 7 8 9 10 11 12 13 14 15 16 17 18 19 20 21 22 23 24 25 26 27 28 29 30 31 32 33 34 35 36 37 38 39 40 41 42 43 44 45 46 47 48 49 50
000
FTUS45 KBOU 272320
TAFDEN
TAF
KDEN 272320Z 2800/2906 03005KT P6SM SCT014 BKN018 OVC045
     FM280100 10004KT P6SM FEW015 SCT020 BKN045
     FM280500 22005KT P6SM SCT045 BKN060
     FM280800 25005KT P6SM VCFG SCT060
      TEMPO 2811/2815 1/2SM FG VV002
     FM281600 11006KT P6SM SCT040 SCT080
     FM281900 09008KT P6SM SCT080 SCT200
     FM290000 15008KT P6SM FEW080 SCT200
     FM290200 18008KT P6SM FEW200=

USA.gov is the U.S. government's official web portal to all federal, state and local government web resources and services.